﻿測定場所 (Monitoring sites),日付 (Measurement date),時間 (Measurement time),線量率 最大値 (max) μGy/h,線量率 最小値 (min) μGy/h,線量率 平均値 (average) μGy/h,
江戸川 (Edogawa),2021-03-14,23:01～24:00,0.0452,0.0396,0.0421,
江戸川 (Edogawa),2021-03-14,22:01～23:00,0.0455,0.0384,0.0419,
江戸川 (Edogawa),2021-03-14,21:01～22:00,0.0446,0.0388,0.0419,
江戸川 (Edogawa),2021-03-14,20:01～21:00,0.0450,0.0397,0.0422,
江戸川 (Edogawa),2021-03-14,19:01～20:00,0.0447,0.0395,0.0419,
江戸川 (Edogawa),2021-03-14,18:01～19:00,0.0458,0.0391,0.0421,
江戸川 (Edogawa),2021-03-14,17:01～18:00,0.0462,0.0394,0.0419,
江戸川 (Edogawa),2021-03-14,16:01～17:00,0.0453,0.0389,0.0418,
江戸川 (Edogawa),2021-03-14,15:01～16:00,0.0467,0.0394,0.0422,
江戸川 (Edogawa),2021-03-14,14:01～15:00,0.0449,0.0396,0.0421,
江戸川 (Edogawa),2021-03-14,13:01～14:00,0.0457,0.0397,0.0419,
江戸川 (Edogawa),2021-03-14,12:01～13:00,0.0450,0.0387,0.0421,
江戸川 (Edogawa),2021-03-14,11:01～12:00,0.0450,0.0391,0.0419,
江戸川 (Edogawa),2021-03-14,10:01～11:00,0.0469,0.0389,0.0418,
江戸川 (Edogawa),2021-03-14,09:01～10:00,0.0448,0.0389,0.0421,
江戸川 (Edogawa),2021-03-14,08:01～09:00,0.0467,0.0394,0.0421,
江戸川 (Edogawa),2021-03-14,07:01～08:00,0.0445,0.0387,0.0418,
江戸川 (Edogawa),2021-03-14,06:01～07:00,0.0452,0.0384,0.0417,
江戸川 (Edogawa),2021-03-14,05:01～06:00,0.0454,0.0382,0.0418,
江戸川 (Edogawa),2021-03-14,04:01～05:00,0.0460,0.0390,0.0418,
江戸川 (Edogawa),2021-03-14,03:01～04:00,0.0451,0.0381,0.0415,
江戸川 (Edogawa),2021-03-14,02:01～03:00,0.0446,0.0383,0.0411,
江戸川 (Edogawa),2021-03-14,01:01～02:00,0.0443,0.0389,0.0416,
江戸川 (Edogawa),2021-03-14,00:01～01:00,0.0451,0.0386,0.0412,
江戸川 (Edogawa),2021-03-13,23:01～24:00,0.0442,0.0381,0.0414,
江戸川 (Edogawa),2021-03-13,22:01～23:00,0.0436,0.0381,0.0413,
江戸川 (Edogawa),2021-03-13,21:01～22:00,0.0459,0.0386,0.0421,
江戸川 (Edogawa),2021-03-13,20:01～21:00,0.0510,0.0404,0.0457,
江戸川 (Edogawa),2021-03-13,19:01～20:00,0.0523,0.0455,0.0498,
江戸川 (Edogawa),2021-03-13,18:01～19:00,0.0534,0.0471,0.0502,
江戸川 (Edogawa),2021-03-13,17:01～18:00,0.0559,0.0481,0.0524,
江戸川 (Edogawa),2021-03-13,16:01～17:00,0.0594,0.0480,0.0537,
江戸川 (Edogawa),2021-03-13,15:01～16:00,0.0596,0.0457,0.0495,
江戸川 (Edogawa),2021-03-13,14:01～15:00,0.0600,0.0456,0.0519,
江戸川 (Edogawa),2021-03-13,13:01～14:00,0.0513,0.0459,0.0485,
江戸川 (Edogawa),2021-03-13,12:01～13:00,0.0505,0.0415,0.0465,
江戸川 (Edogawa),2021-03-13,11:01～12:00,0.0512,0.0441,0.0475,
江戸川 (Edogawa),2021-03-13,10:01～11:00,0.0536,0.0449,0.0500,
江戸川 (Edogawa),2021-03-13,09:01～10:00,0.0570,0.0483,0.0522,
江戸川 (Edogawa),2021-03-13,08:01～09:00,0.0577,0.0510,0.0544,
江戸川 (Edogawa),2021-03-13,07:01～08:00,0.0570,0.0499,0.0538,
江戸川 (Edogawa),2021-03-13,06:01～07:00,0.0585,0.0499,0.0531,
江戸川 (Edogawa),2021-03-13,05:01～06:00,0.0553,0.0470,0.0517,
江戸川 (Edogawa),2021-03-13,04:01～05:00,0.0518,0.0447,0.0488,
江戸川 (Edogawa),2021-03-13,03:01～04:00,0.0500,0.0419,0.0454,
江戸川 (Edogawa),2021-03-13,02:01～03:00,0.0475,0.0413,0.0439,
江戸川 (Edogawa),2021-03-13,01:01～02:00,0.0472,0.0409,0.0438,
江戸川 (Edogawa),2021-03-13,00:01～01:00,0.0482,0.0414,0.0442,
江戸川 (Edogawa),2021-03-12,23:01～24:00,0.0486,0.0423,0.0450,
江戸川 (Edogawa),2021-03-12,22:01～23:00,0.0491,0.0410,0.0451,
江戸川 (Edogawa),2021-03-12,21:01～22:00,0.0458,0.0402,0.0433,
江戸川 (Edogawa),2021-03-12,20:01～21:00,0.0471,0.0407,0.0436,
江戸川 (Edogawa),2021-03-12,19:01～20:00,0.0472,0.0411,0.0438,
江戸川 (Edogawa),2021-03-12,18:01～19:00,0.0470,0.0412,0.0439,
江戸川 (Edogawa),2021-03-12,17:01～18:00,0.0463,0.0412,0.0440,
江戸川 (Edogawa),2021-03-12,16:01～17:00,0.0464,0.0409,0.0441,
江戸川 (Edogawa),2021-03-12,15:01～16:00,0.0480,0.0418,0.0444,
江戸川 (Edogawa),2021-03-12,14:01～15:00,0.0476,0.0406,0.0441,
江戸川 (Edogawa),2021-03-12,13:01～14:00,0.0475,0.0411,0.0442,
江戸川 (Edogawa),2021-03-12,12:01～13:00,0.0468,0.0415,0.0444,
江戸川 (Edogawa),2021-03-12,11:01～12:00,0.0462,0.0402,0.0446,
江戸川 (Edogawa),2021-03-12,10:01～11:00,0.0478,0.0422,0.0445,
江戸川 (Edogawa),2021-03-12,09:01～10:00,0.0472,0.0415,0.0446,
江戸川 (Edogawa),2021-03-12,08:01～09:00,0.0472,0.0418,0.0444,
江戸川 (Edogawa),2021-03-12,07:01～08:00,0.0482,0.0425,0.0444,
江戸川 (Edogawa),2021-03-12,06:01～07:00,0.0485,0.0415,0.0444,
江戸川 (Edogawa),2021-03-12,05:01～06:00,0.0476,0.0419,0.0444,
江戸川 (Edogawa),2021-03-12,04:01～05:00,0.0479,0.0410,0.0442,
江戸川 (Edogawa),2021-03-12,03:01～04:00,0.0463,0.0408,0.0438,
江戸川 (Edogawa),2021-03-12,02:01～03:00,0.0473,0.0401,0.0438,
江戸川 (Edogawa),2021-03-12,01:01～02:00,0.0459,0.0405,0.0433,
江戸川 (Edogawa),2021-03-12,00:01～01:00,0.0468,0.0409,0.0435,
江戸川 (Edogawa),2021-03-11,23:01～24:00,0.0456,0.0407,0.0435,
江戸川 (Edogawa),2021-03-11,22:01～23:00,0.0467,0.0405,0.0432,
江戸川 (Edogawa),2021-03-11,21:01～22:00,0.0472,0.0406,0.0434,
江戸川 (Edogawa),2021-03-11,20:01～21:00,0.0472,0.0394,0.0431,
江戸川 (Edogawa),2021-03-11,19:01～20:00,0.0470,0.0404,0.0432,
江戸川 (Edogawa),2021-03-11,18:01～19:00,0.0462,0.0406,0.0431,
江戸川 (Edogawa),2021-03-11,17:01～18:00,0.0463,0.0394,0.0430,
江戸川 (Edogawa),2021-03-11,16:01～17:00,0.0475,0.0408,0.0437,
江戸川 (Edogawa),2021-03-11,15:01～16:00,0.0472,0.0406,0.0435,
江戸川 (Edogawa),2021-03-11,14:01～15:00,0.0461,0.0411,0.0436,
江戸川 (Edogawa),2021-03-11,13:01～14:00,0.0481,0.0409,0.0441,
江戸川 (Edogawa),2021-03-11,12:01～13:00,0.0470,0.0416,0.0437,
江戸川 (Edogawa),2021-03-11,11:01～12:00,0.0470,0.0411,0.0436,
江戸川 (Edogawa),2021-03-11,10:01～11:00,0.0469,0.0397,0.0437,
江戸川 (Edogawa),2021-03-11,09:01～10:00,0.0467,0.0412,0.0439,
江戸川 (Edogawa),2021-03-11,08:01～09:00,0.0465,0.0401,0.0431,
江戸川 (Edogawa),2021-03-11,07:01～08:00,0.0480,0.0406,0.0431,
江戸川 (Edogawa),2021-03-11,06:01～07:00,0.0449,0.0398,0.0425,
江戸川 (Edogawa),2021-03-11,05:01～06:00,0.0460,0.0407,0.0431,
江戸川 (Edogawa),2021-03-11,04:01～05:00,0.0470,0.0393,0.0428,
江戸川 (Edogawa),2021-03-11,03:01～04:00,0.0464,0.0398,0.0426,
江戸川 (Edogawa),2021-03-11,02:01～03:00,0.0462,0.0400,0.0429,
江戸川 (Edogawa),2021-03-11,01:01～02:00,0.0457,0.0403,0.0433,
江戸川 (Edogawa),2021-03-11,00:01～01:00,0.0466,0.0402,0.0434,
江戸川 (Edogawa),2021-03-10,23:01～24:00,0.0460,0.0403,0.0430,
江戸川 (Edogawa),2021-03-10,22:01～23:00,0.0477,0.0399,0.0431,
江戸川 (Edogawa),2021-03-10,21:01～22:00,0.0463,0.0399,0.0431,
江戸川 (Edogawa),2021-03-10,20:01～21:00,0.0464,0.0386,0.0433,
江戸川 (Edogawa),2021-03-10,19:01～20:00,0.0460,0.0397,0.0432,
江戸川 (Edogawa),2021-03-10,18:01～19:00,0.0466,0.0410,0.0431,
江戸川 (Edogawa),2021-03-10,17:01～18:00,0.0460,0.0402,0.0429,
江戸川 (Edogawa),2021-03-10,16:01～17:00,0.0465,0.0412,0.0435,
江戸川 (Edogawa),2021-03-10,15:01～16:00,0.0464,0.0399,0.0435,
江戸川 (Edogawa),2021-03-10,14:01～15:00,0.0458,0.0397,0.0433,
江戸川 (Edogawa),2021-03-10,13:01～14:00,0.0462,0.0411,0.0439,
江戸川 (Edogawa),2021-03-10,12:01～13:00,0.0472,0.0409,0.0439,
江戸川 (Edogawa),2021-03-10,11:01～12:00,0.0457,0.0394,0.0433,
江戸川 (Edogawa),2021-03-10,10:01～11:00,0.0471,0.0411,0.0433,
江戸川 (Edogawa),2021-03-10,09:01～10:00,0.0459,0.0403,0.0434,
江戸川 (Edogawa),2021-03-10,08:01～09:00,0.0470,0.0392,0.0435,
江戸川 (Edogawa),2021-03-10,07:01～08:00,0.0463,0.0390,0.0432,
江戸川 (Edogawa),2021-03-10,06:01～07:00,0.0455,0.0393,0.0427,
江戸川 (Edogawa),2021-03-10,05:01～06:00,0.0452,0.0398,0.0429,
江戸川 (Edogawa),2021-03-10,04:01～05:00,0.0460,0.0392,0.0427,
江戸川 (Edogawa),2021-03-10,03:01～04:00,0.0449,0.0408,0.0426,
江戸川 (Edogawa),2021-03-10,02:01～03:00,0.0463,0.0395,0.0426,
江戸川 (Edogawa),2021-03-10,01:01～02:00,0.0461,0.0379,0.0426,
江戸川 (Edogawa),2021-03-10,00:01～01:00,0.0469,0.0396,0.0427,
江戸川 (Edogawa),2021-03-09,23:01～24:00,0.0451,0.0394,0.0426,
江戸川 (Edogawa),2021-03-09,22:01～23:00,0.0454,0.0382,0.0425,
江戸川 (Edogawa),2021-03-09,21:01～22:00,0.0457,0.0392,0.0424,
江戸川 (Edogawa),2021-03-09,20:01～21:00,0.0452,0.0396,0.0421,
江戸川 (Edogawa),2021-03-09,19:01～20:00,0.0450,0.0400,0.0424,
江戸川 (Edogawa),2021-03-09,18:01～19:00,0.0446,0.0398,0.0424,
江戸川 (Edogawa),2021-03-09,17:01～18:00,0.0455,0.0392,0.0423,
江戸川 (Edogawa),2021-03-09,16:01～17:00,0.0453,0.0401,0.0426,
江戸川 (Edogawa),2021-03-09,15:01～16:00,0.0452,0.0396,0.0423,
江戸川 (Edogawa),2021-03-09,14:01～15:00,0.0458,0.0412,0.0434,
江戸川 (Edogawa),2021-03-09,13:01～14:00,0.0460,0.0407,0.0430,
江戸川 (Edogawa),2021-03-09,12:01～13:00,0.0460,0.0399,0.0430,
江戸川 (Edogawa),2021-03-09,11:01～12:00,0.0471,0.0400,0.0430,
江戸川 (Edogawa),2021-03-09,10:01～11:00,0.0467,0.0396,0.0429,
江戸川 (Edogawa),2021-03-09,09:01～10:00,0.0460,0.0404,0.0429,
江戸川 (Edogawa),2021-03-09,08:01～09:00,0.0462,0.0401,0.0435,
江戸川 (Edogawa),2021-03-09,07:01～08:00,0.0467,0.0399,0.0436,
江戸川 (Edogawa),2021-03-09,06:01～07:00,0.0461,0.0397,0.0424,
江戸川 (Edogawa),2021-03-09,05:01～06:00,0.0450,0.0397,0.0423,
江戸川 (Edogawa),2021-03-09,04:01～05:00,0.0446,0.0388,0.0421,
江戸川 (Edogawa),2021-03-09,03:01～04:00,0.0451,0.0400,0.0422,
江戸川 (Edogawa),2021-03-09,02:01～03:00,0.0445,0.0383,0.0419,
江戸川 (Edogawa),2021-03-09,01:01～02:00,0.0462,0.0388,0.0422,
江戸川 (Edogawa),2021-03-09,00:01～01:00,0.0472,0.0391,0.0422,
江戸川 (Edogawa),2021-03-08,23:01～24:00,0.0449,0.0387,0.0420,
江戸川 (Edogawa),2021-03-08,22:01～23:00,0.0449,0.0398,0.0419,
江戸川 (Edogawa),2021-03-08,21:01～22:00,0.0450,0.0384,0.0421,
江戸川 (Edogawa),2021-03-08,20:01～21:00,0.0446,0.0374,0.0421,
江戸川 (Edogawa),2021-03-08,19:01～20:00,0.0448,0.0396,0.0421,
江戸川 (Edogawa),2021-03-08,18:01～19:00,0.0451,0.0388,0.0422,
江戸川 (Edogawa),2021-03-08,17:01～18:00,0.0458,0.0396,0.0430,
江戸川 (Edogawa),2021-03-08,16:01～17:00,0.0484,0.0404,0.0434,
江戸川 (Edogawa),2021-03-08,15:01～16:00,0.0495,0.0416,0.0450,
江戸川 (Edogawa),2021-03-08,14:01～15:00,0.0505,0.0441,0.0468,
江戸川 (Edogawa),2021-03-08,13:01～14:00,0.0504,0.0428,0.0453,
江戸川 (Edogawa),2021-03-08,12:01～13:00,0.0469,0.0421,0.0441,
江戸川 (Edogawa),2021-03-08,11:01～12:00,0.0485,0.0419,0.0445,
江戸川 (Edogawa),2021-03-08,10:01～11:00,0.0499,0.0434,0.0462,
江戸川 (Edogawa),2021-03-08,09:01～10:00,0.0511,0.0436,0.0469,
江戸川 (Edogawa),2021-03-08,08:01～09:00,0.0517,0.0446,0.0478,
江戸川 (Edogawa),2021-03-08,07:01～08:00,0.0510,0.0431,0.0474,
江戸川 (Edogawa),2021-03-08,06:01～07:00,0.0483,0.0412,0.0453,
江戸川 (Edogawa),2021-03-08,05:01～06:00,0.0477,0.0414,0.0448,
江戸川 (Edogawa),2021-03-08,04:01～05:00,0.0470,0.0403,0.0441,
江戸川 (Edogawa),2021-03-08,03:01～04:00,0.0479,0.0411,0.0445,
江戸川 (Edogawa),2021-03-08,02:01～03:00,0.0478,0.0412,0.0446,
江戸川 (Edogawa),2021-03-08,01:01～02:00,0.0477,0.0411,0.0447,
江戸川 (Edogawa),2021-03-08,00:01～01:00,0.0468,0.0399,0.0431,
